EW8242 Weather Reports


Display with metric or nautical units.
time (UTC)temp
F
wind
direction
speed
MPH
gust
MPH
rain 1hr
in
rain 24hr
in
rain mn
in
humidity
%
barometer
mb
20210803214909 63 0 0.0 0.0 0.00 0.01 0.02 85 1001.0
20210803214009 63 0 0.0 0.0 0.00 0.01 0.02 85 1000.9
20210803213109 63 0 0.0 0.0 0.00 0.01 0.02 84 1001.0
20210803212209 63 0 0.0 0.0 0.00 0.01 0.02 83 1000.8
20210803211309 64 0 0.0 0.0 0.00 0.01 0.02 83 1001.1
20210803210409 63 0 0.0 0.0 0.00 0.01 0.02 85 1000.9
20210803205509 63 0 0.0 0.0 0.00 0.01 0.02 86 1000.9
20210803204609 63 0 0.0 0.0 0.00 0.01 0.02 85 1000.8
20210803203709 63 0 0.0 0.0 0.00 0.01 0.02 83 1000.9
20210803202809 63 0 0.0 0.0 0.00 0.01 0.02 82 1000.9
20210803201909 64 0 0.0 0.0 0.00 0.01 0.02 80 1000.9
20210803201009 64 0 0.0 0.0 0.00 0.01 0.02 79 1001.0
20210803200109 64 0 0.0 0.0 0.00 0.01 0.02 80 1000.9
20210803195209 64 0 0.0 0.0 0.00 0.01 0.02 81 1000.7
20210803194309 64 0 0.0 0.0 0.00 0.01 0.02 82 1000.9
20210803193409 64 0 0.0 0.0 0.00 0.01 0.02 82 1000.6
20210803192509 64 0 0.0 0.0 0.00 0.01 0.02 80 1000.7
20210803191609 65 0 0.0 0.0 0.00 0.01 0.02 80 1000.5
20210803190709 65 0 0.0 0.0 0.00 0.01 0.02 80 1000.6
20210803185810 66 0 0.0 0.0 0.00 0.01 0.02 77 1000.4
20210803184908 66 0 0.0 0.0 0.00 0.01 0.02 75 1000.6
20210803184009 66 0 0.0 0.0 0.00 0.01 0.02 76 1000.6
20210803183109 66 0 0.0 0.0 0.00 0.01 0.02 74 1000.5
20210803182209 66 0 0.0 0.0 0.00 0.01 0.02 74 1000.5
20210803181308 67 0 0.0 0.0 0.00 0.01 0.02 73 1000.2
20210803180409 67 0 0.0 0.0 0.00 0.01 0.02 74 1000.2
20210803175508 67 0 0.0 0.0 0.00 0.01 0.02 74 1000.2
20210803174609 68 0 0.0 0.0 0.00 0.01 0.02 72 1000.0
20210803173709 69 0 0.0 0.0 0.00 0.01 0.02 67 1000.1
20210803172809 69 0 0.0 0.0 0.00 0.01 0.02 66 1000.1
20210803171908 69 0 0.0 0.0 0.00 0.01 0.02 64 1000.1
20210803171008 69 0 0.0 0.0 0.00 0.01 0.02 64 1000.0
20210803170108 69 0 0.0 0.0 0.00 0.01 0.02 63 1000.2
20210803165208 69 45 0.0 1.0 0.00 0.01 0.02 64 1000.2
20210803164308 68 99 0.0 5.0 0.00 0.01 0.02 63 1000.2
20210803163408 68 112 0.0 2.0 0.00 0.01 0.02 62 1000.3
20210803162508 68 0 0.0 0.0 0.00 0.01 0.02 62 1000.2
20210803161608 69 90 0.0 4.0 0.00 0.01 0.02 61 1000.3
20210803160708 69 0 0.0 0.0 0.00 0.01 0.02 62 1000.4
20210803155808 69 0 0.0 0.0 0.00 0.01 0.02 64 1000.2
20210803154908 69 71 0.0 1.0 0.00 0.01 0.02 62 1000.4
20210803154009 69 10 0.0 3.0 0.00 0.01 0.02 60 1000.5
20210803153108 71 87 0.0 3.0 0.00 0.01 0.02 57 1000.6
20210803152208 72 29 0.0 6.0 0.00 0.01 0.02 54 1000.6
20210803151308 73 181 0.0 1.0 0.00 0.01 0.02 54 1000.9
20210803150408 72 169 0.0 3.0 0.00 0.01 0.02 55 1000.9
20210803145508 72 71 0.0 4.0 0.00 0.01 0.02 57 1000.8
20210803144608 72 0 0.0 0.0 0.00 0.01 0.02 62 1001.0
20210803143708 72 0 0.0 0.0 0.00 0.01 0.02 63 1001.0
20210803142808 73 0 0.0 0.0 0.00 0.01 0.02 62 1001.0
20210803141908 74 0 0.0 0.0 0.00 0.01 0.02 62 1001.0
20210803141009 74 0 0.0 0.0 0.00 0.01 0.02 61 1001.1
20210803140108 73 0 0.0 0.0 0.00 0.01 0.02 63 1001.1
20210803135208 74 0 0.0 0.0 0.00 0.01 0.02 64 1001.2
20210803134308 73 181 0.0 1.0 0.00 0.01 0.02 66 1001.3
20210803133408 70 181 0.0 1.0 0.00 0.01 0.02 71 1001.3
20210803132508 69 90 0.0 1.0 0.00 0.01 0.02 75 1001.2
20210803131608 68 45 0.0 4.0 0.00 0.01 0.02 72 1001.2
20210803130707 69 46 0.0 1.0 0.00 0.01 0.02 72 1001.1
20210803125807 69 0 0.0 0.0 0.00 0.01 0.02 72 1001.3
20210803124908 70 0 0.0 0.0 0.00 0.01 0.02 70 1001.3
20210803124007 70 314 0.0 1.0 0.00 0.01 0.02 70 1001.4
20210803123107 71 225 0.0 1.0 0.00 0.01 0.02 67 1001.2
20210803122208 73 0 0.0 0.0 0.00 0.01 0.02 62 1001.4
20210803121307 72 0 0.0 0.0 0.00 0.01 0.02 68 1001.6
20210803120407 71 45 0.0 2.0 0.00 0.01 0.02 66 1001.6
20210803115507 73 52 0.0 3.0 0.00 0.01 0.02 63 1001.8
20210803114607 74 343 0.0 1.0 0.00 0.01 0.02 65 1001.6
20210803113707 71 0 0.0 0.0 0.00 0.01 0.02 71 1001.7
20210803112807 70 0 0.0 0.0 0.00 0.01 0.02 70 1002.2
20210803111907 70 0 0.0 0.0 0.00 0.01 0.02 72 1002.1
20210803111007 69 23 0.0 1.0 0.00 0.01 0.02 73 1002.1
20210803094907 72 0 0.0 0.0 0.00 0.01 0.02 68 1002.4
20210803094007 71 0 0.0 0.0 0.00 0.01 0.02 74 1002.6
20210803093107 69 0 0.0 0.0 0.00 0.01 0.02 75 1002.5
20210803092207 69 0 0.0 0.0 0.00 0.01 0.02 75 1002.5
20210803091307 68 0 0.0 0.0 0.00 0.01 0.02 77 1002.6
20210803090407 68 0 0.0 0.0 0.00 0.01 0.02 79 1002.7
20210803085507 66 0 0.0 0.0 0.00 0.01 0.02 82 1002.8